This is the latest recevied weather packets stored in our database for station/object KB3KAV. If no packets are shown the sender has not sent any weather packets the latest 10 day(s).
| Time | Temp. | Humidity | Pressure | Rain* | Wind** | Luminosity | Snow |
|---|---|---|---|---|---|---|---|
| 1778100908 | 16.11° C | 94% | 1035.3 hPa | 0 mm | - | 28 W/m² | - |
| 1778100308 | 15.56° C | 94% | 1035.1 hPa | 1.27 mm | - | 84 W/m² | - |
| 1778099702 | 15.56° C | 93% | 1035.2 hPa | 0 mm | - | 26 W/m² | - |
| 1778099102 | 16.11° C | 93% | 1034.9 hPa | 1.78 mm | - | 24 W/m² | - |
| 1778098502 | 16.11° C | 92% | 1035 hPa | 0 mm | - | 26 W/m² | - |
| 1778097900 | 16.11° C | 91% | 1035 hPa | 0 mm | - | 49 W/m² | - |
| 1778097301 | 16.11° C | 92% | 1035.1 hPa | 0 mm | - | 85 W/m² | - |
| 1778096700 | 16.11° C | 92% | 1035 hPa | 0 mm | - | 97 W/m² | - |
| 1778096100 | 15.56° C | 93% | 1035.1 hPa | 0 mm | - | 177 W/m² | - |
| 1778095499 | 15.56° C | 94% | 1035.4 hPa | 0 mm | - | 81 W/m² | - |
| 1778094898 | 15.56° C | 95% | 1035.3 hPa | 0 mm | - | 104 W/m² | - |
| 1778094297 | 15.56° C | 95% | 1035.4 hPa | 0 mm | - | 60 W/m² | - |
| 1778093697 | 15.56° C | 95% | 1035.4 hPa | 0 mm | - | 94 W/m² | - |
| 1778093097 | 15° C | 95% | 1035.4 hPa | 0 mm | - | 187 W/m² | - |
| 1778092495 | 15° C | 95% | 1035.5 hPa | 0 mm | - | 220 W/m² | - |
| 1778091896 | 15° C | 95% | 1035.6 hPa | 0 mm | - | 72 W/m² | - |
| 1778091291 | 15° C | 95% | 1035.8 hPa | 0 mm | - | 55 W/m² | - |
| 1778090690 | 15° C | 95% | 1035.8 hPa | 0 mm | - | 52 W/m² | - |
| 1778090089 | 15° C | 95% | 1035.7 hPa | 0 mm | - | 103 W/m² | - |
| 1778089490 | 15° C | 95% | 1035.9 hPa | 1.27 mm | - | 63 W/m² | - |
| 1778088890 | 15° C | 95% | 1035.5 hPa | 0 mm | - | 49 W/m² | - |
| 1778088290 | 15° C | 95% | 1035.6 hPa | 0 mm | - | 29 W/m² | - |
| 1778087689 | 15° C | 95% | 1035.7 hPa | 0 mm | - | 33 W/m² | - |
| 1778087089 | 15° C | 95% | 1035.7 hPa | 1.78 mm | - | 69 W/m² | - |
| 1778086486 | 15° C | 95% | 1036.1 hPa | 0 mm | - | 62 W/m² | - |
* Rain latest hour (hover to see other rain measurements)
** Current wind speed in m/s (hover to see current wind gust speed)